Regional Weather Roundup
Issued by NWS Sioux Falls, SD

Home | Current Version | Previous Version | Text Only | Print | Product List | Glossary Off
Versions: 1 2 3 4 5 6 7 8 9 10 11 12 13 14 15 16 17 18 19 20 21 22 23 24 25 26 27 28 29 30 31 32 33 34 35 36 37 38 39 40 41 42 43 44 45 46 47 48 49 50

000
ASUS43 KFSD 242010
RWRFSD

WEATHER ROUNDUP FOR SE SOUTH DAKOTA/SW MINNESOTA/NW IOWA
NATIONAL WEATHER SERVICE SIOUX FALLS SD
300 PM CDT FRI OCT 24 2014

NOTE: "FAIR" INDICATES FEW OR NO CLOUDS BELOW 12,000 FEET WITH NO
SIGNIFICANT WEATHER AND OR OBSTRUCTIONS TO VISIBILITY.


SDZ038>040-050-052>070-242100-
SOUTHEAST SOUTH DAKOTA

CITY           SKY/WX    TMP DP  RH WIND       PRES   REMARKS
CHAMBERLAIN    MOSUNNY   75  34  22 W5        29.92S
HURON          SUNNY     79  33  19 W8        29.87F
MADISON        FAIR      73  34  23 NW13      29.90R
MITCHELL       MOSUNNY   75  38  26 VRB3      29.89F
SIOUX FALLS    PTSUNNY   75  39  27 NW8       29.88S
WINNER         FAIR      77  25  14 CALM      29.93F
YANKTON        SUNNY     72  43  35 NW6       29.90S
$$

MNZ071-072-080-081-089-090-097-098-242100-
SOUTHWEST MINNESOTA

CITY           SKY/WX    TMP DP  RH WIND       PRES   REMARKS
FAIRMONT       MOSUNNY   72  25  17 W8        29.85S
JACKSON        PTSUNNY   72  46  40 W6        29.86F
LUVERNE        MOSUNNY   73  41  31 NW10      29.88F
MARSHALL       MOSUNNY   73  41  31 NW10      29.84F
MONTEVIDEO     SUNNY     75  46  35 NW7       29.84F
PIPESTONE      MOSUNNY   72  37  28 NW9       29.88S
REDWOOD FALLS  SUNNY     71  51  49 W7        29.83F
TRACY          PTSUNNY   76  44  32 NW7       29.85F
WINDOM         MOSUNNY   73  45  35 W10       29.85S
WORTHINGTON    PTSUNNY   73  41  31 W14       29.87F
$$

IAZ001>003-012>014-020>022-031-032-NEZ013-014-SDZ071-242100-
NORTHWEST IOWA

CITY           SKY/WX    TMP DP  RH WIND       PRES   REMARKS
CHEROKEE       CLOUDY    71  55  58 W7        29.88S
DENISON        PTSUNNY   73  57  56 W9        29.87F
ESTHERVILLE    PTSUNNY   70  52  52 W9        29.85F
LE MARS        PTSUNNY   73  48  40 NW8       29.88F
ORANGE CITY    PTSUNNY   72  46  40 NW6       29.88F
SHELDON        PTSUNNY   73  46  38 NW7G13    29.87F
SIOUX CITY     PTSUNNY   76  47  35 VRB5      29.88F
SPENCER        PTSUNNY   72  52  49 W10       29.87F
STORM LAKE     PTSUNNY   72  54  53 W10       29.89S
$$

ABBREVIATIONS USED IN REMARKS
   TC - TEMPERATURE IN CELSIUS
  WCI - WIND CHILL INDEX
   HX - HEAT INDEX
  VSB - VISIBILITY




USA.gov is the U.S. government's official web portal to all federal, state and local government web resources and services.